This demonstration page uses our WeatherBlox Daily Observations layout. Learn more.

Left ArrowRight Arrow

44.31136, -96.79839

Hourly Observations for July 14, 2017

Temp ( °F °C ) Dew Point ( °F °C ) Humidity (%) Winds ( mph kmh ) Pressure ( in mb ) Visibility ( mi km ) Precip ( " mm )
12:56 am 00:56 Clear 58 14.4 54 12.2 87 87 E 7 11 30.25 1024 N/A 0.00 0.00
3:56 am 03:56 Clear 53 11.7 52 11.1 96 96 Calm 30.24 1024 N/A 0.00 0.00
4:56 am 04:56 Clear 50 10 49 9.4 96 96 Calm 30.24 1024 N/A 0.00 0.00
5:56 am 05:56 Clear 51 10.6 50 10 96 96 Calm 30.24 1024 N/A 0.00 0.00
6:56 am 06:56 Sunny 51 10.6 51 10.6 100 100 Calm 30.25 1025 N/A 0.00 0.00
7:56 am 07:56 Partly Cloudy 59 15 53 11.7 81 81 ESE 6 9 30.26 1025 N/A 0.00 0.00
8:56 am 08:56 Mostly Sunny 62 16.7 54 12.2 75 75 ESE 6 9 30.25 1025 N/A 0.00 0.00
9:56 am 09:56 Mostly Sunny 66 18.9 56 13.3 70 70 VRB 5 7 30.24 1024 N/A 0.00 0.00
10:56 am 10:56 Sunny 69 20.6 57 13.9 66 66 VRB 5 7 30.24 1024 N/A 0.00 0.00
11:56 am 11:56 Sunny 73 22.8 58 14.4 59 59 S 7 11 30.22 1023 N/A 0.00 0.00
12:56 pm 12:56 Sunny 76 24.4 60 15.6 58 58 ESE 8 13 30.21 1023 N/A 0.00 0.00
2:13 pm 14:13 Mostly Sunny 81 27 61 16 51 51 SSE 8 13 30.09 1019 N/A 0.00 0.00
2:56 pm 14:56 Partly Cloudy 80 26.7 63 17.2 56 56 VRB 5 7 30.19 1023 N/A 0.00 0.00
3:56 pm 15:56 Mostly Sunny 82 27.8 64 17.8 55 55 S 8 13 30.18 1022 N/A 0.00 0.00
4:56 pm 16:56 Partly Cloudy 82 27.8 65 18.3 56 56 S 9 15 30.17 1022 N/A 0.00 0.00
5:56 pm 17:56 Mostly Sunny 84 28.9 65 18.3 53 53 S 7 11 30.15 1021 N/A 0.00 0.00
6:56 pm 18:56 Sunny 83 28.3 66 18.9 57 57 SSE 9 15 30.13 1020 N/A 0.00 0.00
7:56 pm 19:56 Sunny 82 27.8 66 18.9 58 58 undefined N/A 30.10 1019 N/A 0.00 0.00
8:56 pm 20:56 Sunny 78 25.6 67 19.4 69 69 SE 8 13 30.11 1020 N/A 0.00 0.00
9:56 pm 21:56 Clear 75 23.9 67 19.4 76 76 SSE 8 13 30.13 1020 N/A 0.00 0.00
10:56 pm 22:56 Clear 74 23.3 67 19.4 79 79 S 10 17 30.12 1020 N/A 0.00 0.00

Powered by AerisWeather